Wenatchee, WA
on Wednesday, January 9, 2013

Wednesday
Previous Day Next Day
Daily Summary
 ActualAverageRecord
Temperature
Mean Temperature °F / °C 27°F / -3°C  
Max Temperature 41°F / 5°C 32°F / 0°C 48°F / 8°C (1983)
Min Temperature 31°F / -1°C 21°F / -6°C -3°F / -19°C (1974)
Degree Days
Heating Degree Days 29 38  
Month to date heating degree days 327 351  
Since 1 July heating degree days 2990 3449  
Cooling Degree Days 0 0  
Month to date cooling degree days 0 0  
Year to date cooling degree days 0 0  
Moisture
Dew Point 28°F / -2°C   
Average Humidity 63    
Maximum Humidity 89    
Minimum Humidity 53    
Precipitation
Precipitation 0.00 in / 0.00 cm 0.07 in / 1.78 cm 0.51 in / 1.30 cm (1990)
Month to date precipitation 0.70 0.64  
Year to date precipitation 0.70 0.64  
Snow
Snow 0.00 in / 0.00 cm 0.60 in / 1.52 cm in / cm ()
Month to date snowfall 8.6 5.5  
Since 1 July snowfall 38.9 30.4  
Snow Depth 7.00 in / 17.78 cm   
Wind
Wind Speed 8 mph / 13 km/h   
Max Wind Speed 16 mph / 26 km/h   
Max Gust Speed 24 mph / 39 km/h   
Visibility 10 miles / 16 kilometers   
Events     

Key: T is trace of precipitation, MM is missing value
Source: NWS Daily Summary
Time(PST)TemperatureDew PointHumidity Pressure Visibility Wind DirectionWind SpeedGust SpeedPrecipitationEvents Conditions
12:55 AM 34.0°F / 1.1°C 30.9°F / -0.6°C 89% 29.75 in / 1007.3 hPa 8.0 miles / 12.9 kilometers WNW 3.5 mph / 5.6 km/h - N/A   Clear
1:55 AM 37.0°F / 2.8°C 32.0°F / 0.0°C 82% 29.71 in / 1006.0 hPa 10.0 miles / 16.1 kilometers East 9.2 mph / 14.8 km/h - N/A   Clear
2:55 AM 39.9°F / 4.4°C 32.0°F / 0.0°C 73% 29.69 in / 1005.4 hPa 10.0 miles / 16.1 kilometers Variable 3.5 mph / 5.6 km/h - N/A   Clear
4:55 AM 46.0°F / 7.8°C 30.0°F / -1.1°C 54% 29.65 in / 1004.1 hPa 10.0 miles / 16.1 kilometers SE 8.1 mph / 13.0 km/h - N/A   Clear
5:55 AM 44.1°F / 6.7°C 30.0°F / -1.1°C 58% 29.64 in / 1003.7 hPa 10.0 miles / 16.1 kilometers NE 11.5 mph / 18.5 km/h 24.2 mph / 38.9 km/h N/A   Clear
6:55 AM 45.0°F / 7.2°C 28.9°F / -1.7°C 53% 29.63 in / 1003.4 hPa 10.0 miles / 16.1 kilometers East 6.9 mph / 11.1 km/h - N/A   Clear
7:55 AM 43.0°F / 6.1°C 28.9°F / -1.7°C 58% 29.60 in / 1002.2 hPa 10.0 miles / 16.1 kilometers East 16.1 mph / 25.9 km/h - N/A   Clear
9:55 AM 45.0°F / 7.2°C 28.9°F / -1.7°C 53% 29.59 in / 1001.8 hPa 10.0 miles / 16.1 kilometers ENE 8.1 mph / 13.0 km/h 17.3 mph / 27.8 km/h N/A   Partly Cloudy
10:55 AM 44.1°F / 6.7°C 30.0°F / -1.1°C 58% 29.59 in / 1002.0 hPa 10.0 miles / 16.1 kilometers NE 3.5 mph / 5.6 km/h - N/A   Partly Cloudy
11:55 AM 43.0°F / 6.1°C 32.0°F / 0.0°C 65% 29.60 in / 1002.4 hPa 10.0 miles / 16.1 kilometers NW 8.1 mph / 13.0 km/h - N/A   Overcast
12:55 PM 42.1°F / 5.6°C 33.1°F / 0.6°C 70% 29.62 in / 1002.9 hPa 10.0 miles / 16.1 kilometers South 3.5 mph / 5.6 km/h - N/A   Mostly Cloudy
1:55 PM 41.0°F / 5.0°C 30.0°F / -1.1°C 65% 29.64 in / 1003.6 hPa 10.0 miles / 16.1 kilometers NW 9.2 mph / 14.8 km/h - N/A   Clear
2:55 PM 43.0°F / 6.1°C 30.0°F / -1.1°C 60% 29.66 in / 1004.2 hPa 10.0 miles / 16.1 kilometers North 4.6 mph / 7.4 km/h - N/A   Clear
3:55 PM 41.0°F / 5.0°C 28.0°F / -2.2°C 60% 29.68 in / 1004.8 hPa 10.0 miles / 16.1 kilometers WNW 10.4 mph / 16.7 km/h - N/A   Clear
4:55 PM 39.0°F / 3.9°C 25.0°F / -3.9°C 57% 29.70 in / 1005.5 hPa 10.0 miles / 16.1 kilometers WNW 13.8 mph / 22.2 km/h - N/A   Clear
5:55 PM 39.0°F / 3.9°C 25.0°F / -3.9°C 57% 29.72 in / 1006.3 hPa 10.0 miles / 16.1 kilometers NW 15.0 mph / 24.1 km/h - N/A   Clear
6:55 PM 37.0°F / 2.8°C 24.1°F / -4.4°C 59% 29.74 in / 1007.1 hPa 10.0 miles / 16.1 kilometers NNW 10.4 mph / 16.7 km/h - N/A   Clear
8:55 PM 35.1°F / 1.7°C 23.0°F / -5.0°C 61% 29.78 in / 1008.3 hPa 10.0 miles / 16.1 kilometers WNW 8.1 mph / 13.0 km/h - N/A   Clear
9:55 PM 35.1°F / 1.7°C 21.9°F / -5.6°C 59% 29.80 in / 1009.0 hPa 10.0 miles / 16.1 kilometers NNW 6.9 mph / 11.1 km/h - N/A   Clear
10:55 PM 33.1°F / 0.6°C 21.0°F / -6.1°C 61% 29.82 in / 1009.6 hPa 10.0 miles / 16.1 kilometers NW 8.1 mph / 13.0 km/h - N/A   Clear
11:55 PM 33.1°F / 0.6°C 21.0°F / -6.1°C 61% 29.82 in / 1009.6 hPa 10.0 miles / 16.1 kilometers WNW 10.4 mph / 16.7 km/h - N/A   Clear
Moon Phase
Jan. 09 Jan. 11 Jan. 18 Jan. 26 Feb. 03
Sunrise:07:46 AM (PST) Moon Rise:05:31 AM (PST)1/9
Sunset:04:30 PM (PST) Moon Set:02:36 PM (PST)1/9

Copyright © 2014 The Weather Underground, Inc.